This is the latest recevied weather packets stored in our database for station/object WX2NJ. If no packets are shown the sender has not sent any weather packets the latest 10 day(s).
| Time | Temp. | Humidity | Pressure | Rain* | Wind** | Luminosity | Snow |
|---|---|---|---|---|---|---|---|
| 1777853167 | 10.56° C | 46% | 1015.8 hPa | 0 mm | - | 0 W/m² | - |
| 1777852864 | 11.11° C | 45% | 1016 hPa | 0 mm | - | 0 W/m² | - |
| 1777852563 | 11.67° C | 45% | 1015.8 hPa | 0 mm | - | 0 W/m² | - |
| 1777852259 | 11.67° C | 42% | 1015.8 hPa | 0 mm | - | 0 W/m² | - |
| 1777851957 | 12.22° C | 40% | 1015.7 hPa | 0 mm | - | 1 W/m² | - |
| 1777851655 | 12.78° C | 39% | 1015.7 hPa | 0 mm | - | 2 W/m² | - |
| 1777851351 | 12.78° C | 37% | 1015.6 hPa | 0 mm | - | 5 W/m² | - |
| 1777851047 | 13.33° C | 36% | 1015.7 hPa | 0 mm | - | 7 W/m² | - |
| 1777850744 | 13.89° C | 33% | 1015.4 hPa | 0 mm | - | 10 W/m² | - |
| 1777850442 | 13.89° C | 33% | 1015.5 hPa | 0 mm | - | 12 W/m² | - |
| 1777850139 | 13.89° C | 33% | 1015.5 hPa | 0 mm | - | 15 W/m² | - |
| 1777849836 | 13.89° C | 32% | 1015.4 hPa | 0 mm | - | 17 W/m² | - |
| 1777849532 | 14.44° C | 31% | 1015.5 hPa | 0 mm | - | 18 W/m² | - |
| 1777849230 | 14.44° C | 31% | 1015.5 hPa | 0 mm | - | 21 W/m² | - |
| 1777848927 | 14.44° C | 31% | 1015.6 hPa | 0 mm | - | 23 W/m² | - |
| 1777848622 | 14.44° C | 29% | 1015.4 hPa | 0 mm | - | 23 W/m² | - |
| 1777848320 | 15° C | 30% | 1015.4 hPa | 0 mm | - | 24 W/m² | - |
| 1777848017 | 15° C | 31% | 1015.3 hPa | 0 mm | - | 26 W/m² | - |
| 1777847715 | 15° C | 28% | 1015.5 hPa | 0 mm | - | 29 W/m² | - |
| 1777847410 | 15° C | 28% | 1015.3 hPa | 0 mm | - | 34 W/m² | - |
| 1777847109 | 15° C | 29% | 1015.2 hPa | 0 mm | - | 35 W/m² | - |
| 1777846807 | 15° C | 28% | 1015.3 hPa | 0 mm | - | 34 W/m² | - |
| 1777846505 | 15° C | 27% | 1015.3 hPa | 0 mm | - | 33 W/m² | - |
| 1777846202 | 15.56° C | 27% | 1015.1 hPa | 0 mm | - | 56 W/m² | - |
| 1777845898 | 15.56° C | 29% | 1015.2 hPa | 0 mm | - | 50 W/m² | - |
* Rain latest hour (hover to see other rain measurements)
** Current wind speed in m/s (hover to see current wind gust speed)